Time,TemperatureF,DewpointF,PressureIn,WindDirection,WindDirectionDegrees,WindSpeedMPH,WindSpeedGustMPH,Humidity,HourlyPrecipIn,Conditions,Clouds,dailyrainin,SolarRadiationWatts/m^2,SoftwareType,DateUTC
2013-01-18 00:04:00,60.0,49.0,-100.00,NW,313,3.0,11.0,68,0.00,,,0.00,0.000000,,2013-01-18 05:04:00,
2013-01-18 00:11:00,59.0,50.0,-100.00,NW,323,3.0,9.0,71,0.00,,,0.00,0.000000,,2013-01-18 05:11:00,
2013-01-18 00:33:00,59.0,50.0,-100.00,NW,323,3.0,9.0,71,0.00,,,0.00,0.000000,,2013-01-18 05:33:00,
2013-01-18 00:43:00,59.0,50.0,-100.00,NW,323,3.0,9.0,71,0.00,,,0.00,0.000000,,2013-01-18 05:43:00,
2013-01-18 00:53:00,59.0,50.0,-100.00,NW,323,3.0,9.0,71,0.00,,,0.00,0.000000,,2013-01-18 05:53:00,
2013-01-18 01:02:00,59.0,50.0,-100.00,NW,323,3.0,9.0,71,0.00,,,0.00,0.000000,,2013-01-18 06:02:00,
2013-01-18 01:11:00,57.0,49.0,-100.00,NW,320,2.0,6.0,75,0.00,,,0.00,0.000000,,2013-01-18 06:11:00,
2013-01-18 01:33:00,57.0,49.0,-100.00,NW,320,2.0,6.0,75,0.00,,,0.00,0.000000,,2013-01-18 06:33:00,
2013-01-18 01:43:00,57.0,49.0,-100.00,NW,320,2.0,6.0,75,0.00,,,0.00,0.000000,,2013-01-18 06:43:00,
2013-01-18 01:53:00,57.0,49.0,-100.00,NW,320,2.0,6.0,75,0.00,,,0.00,0.000000,,2013-01-18 06:53:00,
2013-01-18 02:02:00,57.0,49.0,-100.00,NW,320,2.0,6.0,75,0.00,,,0.00,0.000000,,2013-01-18 07:02:00,
2013-01-18 02:11:00,53.0,49.0,-100.00,ESE,116,0.0,4.0,87,0.00,,,0.00,0.000000,,2013-01-18 07:11:00,
2013-01-18 02:33:00,53.0,49.0,-100.00,ESE,116,0.0,4.0,87,0.00,,,0.00,0.000000,,2013-01-18 07:33:00,
2013-01-18 02:42:00,53.0,49.0,-100.00,ESE,116,0.0,4.0,87,0.00,,,0.00,0.000000,,2013-01-18 07:42:00,
2013-01-18 02:52:00,53.0,49.0,-100.00,ESE,116,0.0,4.0,87,0.00,,,0.00,0.000000,,2013-01-18 07:52:00,
2013-01-18 03:02:00,53.0,49.0,-100.00,ESE,116,0.0,4.0,87,0.00,,,0.00,0.000000,,2013-01-18 08:02:00,
2013-01-18 03:11:00,51.0,49.0,-100.00,NW,315,1.0,3.0,93,0.00,,,0.00,0.000000,,2013-01-18 08:11:00,
2013-01-18 03:33:00,51.0,49.0,-100.00,NW,315,1.0,3.0,93,0.00,,,0.00,0.000000,,2013-01-18 08:33:00,
2013-01-18 03:43:00,51.0,49.0,-100.00,NW,315,1.0,3.0,93,0.00,,,0.00,0.000000,,2013-01-18 08:43:00,
2013-01-18 03:53:00,51.0,49.0,-100.00,NW,315,1.0,3.0,93,0.00,,,0.00,0.000000,,2013-01-18 08:53:00,
2013-01-18 04:03:00,51.0,49.0,-100.00,NW,315,1.0,3.0,93,0.00,,,0.00,0.000000,,2013-01-18 09:03:00,
2013-01-18 04:11:00,53.0,49.0,-100.00,NW,313,0.0,5.0,86,0.00,,,0.00,0.000000,,2013-01-18 09:11:00,
2013-01-18 04:33:00,53.0,49.0,-100.00,NW,313,0.0,5.0,86,0.00,,,0.00,0.000000,,2013-01-18 09:33:00,
2013-01-18 04:43:00,53.0,49.0,-100.00,NW,313,0.0,5.0,86,0.00,,,0.00,0.000000,,2013-01-18 09:43:00,
2013-01-18 04:53:00,53.0,49.0,-100.00,NW,313,0.0,5.0,86,0.00,,,0.00,0.000000,,2013-01-18 09:53:00,
2013-01-18 05:03:00,53.0,49.0,-100.00,NW,313,0.0,5.0,86,0.00,,,0.00,0.000000,,2013-01-18 10:03:00,
2013-01-18 05:11:00,54.0,51.0,-100.00,NW,308,2.0,3.0,88,0.00,,,0.00,0.000000,,2013-01-18 10:11:00,
2013-01-18 05:33:00,54.0,51.0,-100.00,NW,308,2.0,3.0,88,0.00,,,0.00,0.000000,,2013-01-18 10:33:00,
2013-01-18 05:43:00,54.0,51.0,-100.00,NW,308,2.0,3.0,88,0.00,,,0.00,0.000000,,2013-01-18 10:43:00,
2013-01-18 05:53:00,54.0,51.0,-100.00,NW,308,2.0,3.0,88,0.00,,,0.00,0.000000,,2013-01-18 10:53:00,
2013-01-18 06:03:00,54.0,51.0,-100.00,NW,308,2.0,3.0,88,0.00,,,0.00,0.000000,,2013-01-18 11:03:00,
2013-01-18 06:11:00,55.0,46.0,-100.00,NNW,334,4.0,12.0,72,0.00,,,0.00,0.000000,,2013-01-18 11:11:00,
2013-01-18 06:33:00,55.0,46.0,-100.00,NNW,334,4.0,12.0,72,0.00,,,0.00,0.000000,,2013-01-18 11:33:00,
2013-01-18 06:43:00,55.0,46.0,-100.00,NNW,334,4.0,12.0,72,0.00,,,0.00,0.000000,,2013-01-18 11:43:00,
2013-01-18 06:53:00,55.0,46.0,-100.00,NNW,334,4.0,12.0,72,0.00,,,0.00,0.000000,,2013-01-18 11:53:00,
2013-01-18 07:03:00,55.0,46.0,-100.00,NNW,334,4.0,12.0,72,0.00,,,0.00,0.000000,,2013-01-18 12:03:00,
2013-01-18 07:11:00,53.0,44.0,-100.00,North,358,4.0,11.0,72,0.00,,,0.00,0.000000,,2013-01-18 12:11:00,
2013-01-18 07:33:00,53.0,44.0,-100.00,North,358,4.0,11.0,72,0.00,,,0.00,0.000000,,2013-01-18 12:33:00,
2013-01-18 07:43:00,53.0,44.0,-100.00,North,358,4.0,11.0,72,0.00,,,0.00,0.000000,,2013-01-18 12:43:00,
2013-01-18 07:53:00,53.0,44.0,-100.00,North,358,4.0,11.0,72,0.00,,,0.00,0.000000,,2013-01-18 12:53:00,
2013-01-18 08:03:00,53.0,44.0,-100.00,North,358,4.0,11.0,72,0.00,,,0.00,0.000000,,2013-01-18 13:03:00,
2013-01-18 08:11:00,52.0,44.0,-100.00,North,356,4.0,9.0,73,0.00,,,0.00,9.000000,,2013-01-18 13:11:00,
2013-01-18 08:33:00,52.0,44.0,-100.00,North,356,4.0,9.0,73,0.00,,,0.00,9.000000,,2013-01-18 13:33:00,
2013-01-18 08:43:00,52.0,44.0,-100.00,North,356,4.0,9.0,73,0.00,,,0.00,9.000000,,2013-01-18 13:43:00,
2013-01-18 08:53:00,52.0,44.0,-100.00,North,356,4.0,9.0,73,0.00,,,0.00,9.000000,,2013-01-18 13:53:00,
2013-01-18 09:03:00,52.0,44.0,-100.00,North,356,4.0,9.0,73,0.00,,,0.00,9.000000,,2013-01-18 14:03:00,
2013-01-18 09:11:00,52.0,43.0,-100.00,North,359,4.0,10.0,70,0.00,,,0.00,42.000000,,2013-01-18 14:11:00,
2013-01-18 09:43:00,52.0,43.0,-100.00,North,359,4.0,10.0,70,0.00,,,0.00,42.000000,,2013-01-18 14:43:00,
2013-01-18 09:53:00,52.0,43.0,-100.00,North,359,4.0,10.0,70,0.00,,,0.00,42.000000,,2013-01-18 14:53:00,
2013-01-18 10:03:00,52.0,43.0,-100.00,North,359,4.0,10.0,70,0.00,,,0.00,42.000000,,2013-01-18 15:03:00,
2013-01-18 10:11:00,51.0,40.0,-100.00,NNW,343,5.0,10.0,67,0.00,,,0.00,101.000000,,2013-01-18 15:11:00,
2013-01-18 10:34:00,51.0,40.0,-100.00,NNW,343,5.0,10.0,67,0.00,,,0.00,101.000000,,2013-01-18 15:34:00,
2013-01-18 10:43:00,51.0,40.0,-100.00,NNW,343,5.0,10.0,67,0.00,,,0.00,101.000000,,2013-01-18 15:43:00,
2013-01-18 10:54:00,51.0,40.0,-100.00,NNW,343,5.0,10.0,67,0.00,,,0.00,101.000000,,2013-01-18 15:54:00,
2013-01-18 11:03:00,51.0,40.0,-100.00,NNW,343,5.0,10.0,67,0.00,,,0.00,101.000000,,2013-01-18 16:03:00,
2013-01-18 11:11:00,52.0,41.0,-100.00,North,0,4.0,11.0,65,0.00,,,0.00,205.000000,,2013-01-18 16:11:00,
2013-01-18 11:33:00,52.0,41.0,-100.00,North,0,4.0,11.0,65,0.00,,,0.00,205.000000,,2013-01-18 16:33:00,
2013-01-18 11:43:00,52.0,41.0,-100.00,North,0,4.0,11.0,65,0.00,,,0.00,205.000000,,2013-01-18 16:43:00,
2013-01-18 11:53:00,52.0,41.0,-100.00,North,0,4.0,11.0,65,0.00,,,0.00,205.000000,,2013-01-18 16:53:00,
2013-01-18 12:03:00,52.0,41.0,-100.00,North,0,4.0,11.0,65,0.00,,,0.00,205.000000,,2013-01-18 17:03:00,
2013-01-18 12:11:00,59.0,43.0,-100.00,WNW,289,3.0,8.0,56,0.00,,,0.00,615.000000,,2013-01-18 17:11:00,
2013-01-18 12:34:00,59.0,43.0,-100.00,WNW,289,3.0,8.0,56,0.00,,,0.00,615.000000,,2013-01-18 17:34:00,
2013-01-18 12:43:00,59.0,43.0,-100.00,WNW,289,3.0,8.0,56,0.00,,,0.00,615.000000,,2013-01-18 17:43:00,
2013-01-18 12:53:00,59.0,43.0,-100.00,WNW,289,3.0,8.0,56,0.00,,,0.00,615.000000,,2013-01-18 17:53:00,
2013-01-18 13:03:00,59.0,43.0,-100.00,WNW,289,3.0,8.0,56,0.00,,,0.00,615.000000,,2013-01-18 18:03:00,
2013-01-18 13:11:00,63.0,45.0,-100.00,North,358,5.0,9.0,52,0.00,,,0.00,658.000000,,2013-01-18 18:11:00,
2013-01-18 13:34:00,63.0,45.0,-100.00,North,358,5.0,9.0,52,0.00,,,0.00,658.000000,,2013-01-18 18:34:00,
2013-01-18 13:43:00,63.0,45.0,-100.00,North,358,5.0,9.0,52,0.00,,,0.00,658.000000,,2013-01-18 18:43:00,
2013-01-18 13:53:00,63.0,45.0,-100.00,North,358,5.0,9.0,52,0.00,,,0.00,658.000000,,2013-01-18 18:53:00,
2013-01-18 14:03:00,63.0,45.0,-100.00,North,358,5.0,9.0,52,0.00,,,0.00,658.000000,,2013-01-18 19:03:00,
2013-01-18 14:11:00,67.0,48.0,-100.00,North,6,4.0,10.0,51,0.00,,,0.00,603.000000,,2013-01-18 19:11:00,
2013-01-18 14:33:00,67.0,48.0,-100.00,North,6,4.0,10.0,51,0.00,,,0.00,603.000000,,2013-01-18 19:33:00,
2013-01-18 14:43:00,67.0,48.0,-100.00,North,6,4.0,10.0,51,0.00,,,0.00,603.000000,,2013-01-18 19:43:00,
2013-01-18 14:53:00,67.0,48.0,-100.00,North,6,4.0,10.0,51,0.00,,,0.00,603.000000,,2013-01-18 19:53:00,
2013-01-18 15:03:00,67.0,48.0,-100.00,North,6,4.0,10.0,51,0.00,,,0.00,603.000000,,2013-01-18 20:03:00,
2013-01-18 15:11:00,69.0,51.0,-100.00,NE,44,4.0,11.0,52,0.00,,,0.00,495.000000,,2013-01-18 20:11:00,
2013-01-18 15:33:00,69.0,51.0,-100.00,NE,44,4.0,11.0,52,0.00,,,0.00,495.000000,,2013-01-18 20:33:00,
2013-01-18 15:43:00,69.0,51.0,-100.00,NE,44,4.0,11.0,52,0.00,,,0.00,495.000000,,2013-01-18 20:43:00,
2013-01-18 15:53:00,69.0,51.0,-100.00,NE,44,4.0,11.0,52,0.00,,,0.00,495.000000,,2013-01-18 20:53:00,
2013-01-18 16:03:00,69.0,51.0,-100.00,NE,44,4.0,11.0,52,0.00,,,0.00,495.000000,,2013-01-18 21:03:00,
2013-01-18 16:11:00,69.0,53.0,-100.00,NNE,18,5.0,11.0,56,0.00,,,0.00,301.000000,,2013-01-18 21:11:00,
2013-01-18 16:43:00,69.0,53.0,-100.00,NNE,18,5.0,11.0,56,0.00,,,0.00,301.000000,,2013-01-18 21:43:00,
2013-01-18 16:53:00,69.0,53.0,-100.00,NNE,18,5.0,11.0,56,0.00,,,0.00,301.000000,,2013-01-18 21:53:00,
2013-01-18 17:03:00,69.0,53.0,-100.00,NNE,18,5.0,11.0,56,0.00,,,0.00,301.000000,,2013-01-18 22:03:00,
2013-01-18 17:11:00,68.0,53.0,-100.00,NE,51,4.0,11.0,58,0.00,,,0.00,170.000000,,2013-01-18 22:11:00,
2013-01-18 17:43:00,68.0,53.0,-100.00,NE,51,4.0,11.0,58,0.00,,,0.00,170.000000,,2013-01-18 22:43:00,
2013-01-18 17:53:00,68.0,53.0,-100.00,NE,51,4.0,11.0,58,0.00,,,0.00,170.000000,,2013-01-18 22:53:00,
2013-01-18 18:03:00,68.0,53.0,-100.00,NE,51,4.0,11.0,58,0.00,,,0.00,170.000000,,2013-01-18 23:03:00,
2013-01-18 18:11:00,63.0,55.0,-100.00,North,11,0.0,5.0,76,0.00,,,0.00,23.000000,,2013-01-18 23:11:00,
2013-01-18 18:33:00,63.0,55.0,-100.00,North,11,0.0,5.0,76,0.00,,,0.00,23.000000,,2013-01-18 23:33:00,
2013-01-18 18:43:00,63.0,55.0,-100.00,North,11,0.0,5.0,76,0.00,,,0.00,23.000000,,2013-01-18 23:43:00,
2013-01-18 18:53:00,63.0,55.0,-100.00,North,11,0.0,5.0,76,0.00,,,0.00,23.000000,,2013-01-18 23:53:00,
2013-01-18 19:03:00,63.0,55.0,-100.00,North,11,0.0,5.0,76,0.00,,,0.00,23.000000,,2013-01-19 00:03:00,
2013-01-18 19:11:00,58.0,54.0,-100.00,North,1,0.0,0.0,88,0.00,,,0.00,0.000000,,2013-01-19 00:11:00,
2013-01-18 19:33:00,58.0,54.0,-100.00,North,1,0.0,0.0,88,0.00,,,0.00,0.000000,,2013-01-19 00:33:00,
2013-01-18 19:43:00,58.0,54.0,-100.00,North,1,0.0,0.0,88,0.00,,,0.00,0.000000,,2013-01-19 00:43:00,
2013-01-18 19:53:00,58.0,54.0,-100.00,North,1,0.0,0.0,88,0.00,,,0.00,0.000000,,2013-01-19 00:53:00,
2013-01-18 20:03:00,58.0,54.0,-100.00,North,1,0.0,0.0,88,0.00,,,0.00,0.000000,,2013-01-19 01:03:00,
2013-01-18 20:11:00,55.0,53.0,-100.00,NE,39,0.0,2.0,92,0.00,,,0.00,0.000000,,2013-01-19 01:11:00,
2013-01-18 20:33:00,55.0,53.0,-100.00,NE,39,0.0,2.0,92,0.00,,,0.00,0.000000,,2013-01-19 01:33:00,
2013-01-18 20:43:00,55.0,53.0,-100.00,NE,39,0.0,2.0,92,0.00,,,0.00,0.000000,,2013-01-19 01:43:00,
2013-01-18 20:53:00,55.0,53.0,-100.00,NE,39,0.0,2.0,92,0.00,,,0.00,0.000000,,2013-01-19 01:53:00,
2013-01-18 21:03:00,55.0,53.0,-100.00,NE,39,0.0,2.0,92,0.00,,,0.00,0.000000,,2013-01-19 02:03:00,
2013-01-18 21:11:00,55.0,54.0,-100.00,NNW,341,0.0,0.0,95,0.00,,,0.00,0.000000,,2013-01-19 02:11:00,
2013-01-18 21:33:00,55.0,54.0,-100.00,NNW,341,0.0,0.0,95,0.00,,,0.00,0.000000,,2013-01-19 02:33:00,
2013-01-18 21:43:00,55.0,54.0,-100.00,NNW,341,0.0,0.0,95,0.00,,,0.00,0.000000,,2013-01-19 02:43:00,
2013-01-18 21:53:00,55.0,54.0,-100.00,NNW,341,0.0,0.0,95,0.00,,,0.00,0.000000,,2013-01-19 02:53:00,
2013-01-18 22:03:00,55.0,54.0,-100.00,NNW,341,0.0,0.0,95,0.00,,,0.00,0.000000,,2013-01-19 03:03:00,
2013-01-18 22:11:00,56.0,55.0,-100.00,NW,317,1.0,3.0,96,0.00,,,0.00,0.000000,,2013-01-19 03:11:00,
2013-01-18 22:33:00,56.0,55.0,-100.00,NW,317,1.0,3.0,96,0.00,,,0.00,0.000000,,2013-01-19 03:33:00,
2013-01-18 22:44:00,56.0,55.0,-100.00,NW,317,1.0,3.0,96,0.00,,,0.00,0.000000,,2013-01-19 03:44:00,
2013-01-18 22:53:00,56.0,55.0,-100.00,NW,317,1.0,3.0,96,0.00,,,0.00,0.000000,,2013-01-19 03:53:00,
2013-01-18 23:02:00,56.0,55.0,-100.00,NW,317,1.0,3.0,96,0.00,,,0.00,0.000000,,2013-01-19 04:02:00,
2013-01-18 23:11:00,59.0,56.0,-100.00,North,349,2.0,4.0,91,0.00,,,0.00,0.000000,,2013-01-19 04:11:00,
2013-01-18 23:33:00,59.0,56.0,-100.00,North,349,2.0,4.0,91,0.00,,,0.00,0.000000,,2013-01-19 04:33:00,
2013-01-18 23:43:00,59.0,56.0,-100.00,North,349,2.0,4.0,91,0.00,,,0.00,0.000000,,2013-01-19 04:43:00,
2013-01-18 23:53:00,59.0,56.0,-100.00,North,349,2.0,4.0,91,0.00,,,0.00,0.000000,,2013-01-19 04:53:00,